Tracking 29969 objects as of 6-Dec-2024
HD Live streaming from Space Station
objects crossing your sky now

IRIDIUM 33 DEB

Track IRIDIUM 33 DEB now!
10-day predictions


NORAD ID: 34693
Int'l Code: 1997-051KQ
Perigee: 609.0 km
Apogee: 633.2 km
Inclination: 86.3 °
Period: 97.0 minutes
Semi major axis: 6992 km
RCS: 0.01 m2 (small)
Launch date: September 14, 1997
Source: United States (US)
Launch site: TYURATAM MISSILE AND SPACE COMPLEX (TTMTR)

Note: This is SATELLITE DEBRIS
Your satellite tracking list
Your tracking list is empty




NASA's NSSDC Master Catalog

Two Line Element Set (TLE):
1 34693U 97051KQ  24340.41780347  .00049805  00000-0  58052-2 0  9992
2 34693  86.3266 121.0793 0017366 290.6862 123.4854 14.84880171833246
Source of the keplerian elements: AFSPC